TimeEDT,TemperatureF,Dew PointF,Humidity,Sea Level PressureIn,VisibilityMPH,Wind Direction,Wind SpeedMPH,Gust SpeedMPH,PrecipitationIn,Events,Conditions,WindDirDegrees,DateUTC
12:53 AM,66.0,54.0,65,30.09,10.0,WSW,8.1,-,N/A,,Mostly Cloudy,250,2012-10-05 04:53:00
1:53 AM,63.0,55.0,75,30.07,10.0,SW,4.6,-,N/A,,Clear,220,2012-10-05 05:53:00
2:53 AM,61.0,55.0,81,30.09,10.0,West,5.8,-,N/A,,Partly Cloudy,280,2012-10-05 06:53:00
4:53 AM,55.0,51.1,86,30.11,10.0,WNW,9.2,-,N/A,,Clear,290,2012-10-05 08:53:00
5:16 AM,55.4,51.8,88,30.14,10.0,WNW,9.2,-,N/A,,Scattered Clouds,290,2012-10-05 09:16:00
5:24 AM,53.6,51.8,94,30.14,10.0,WNW,9.2,-,N/A,,Mostly Cloudy,300,2012-10-05 09:24:00
5:51 AM,53.6,46.4,77,30.14,10.0,NW,10.4,-,N/A,,Scattered Clouds,310,2012-10-05 09:51:00
5:53 AM,53.1,46.9,80,30.13,10.0,NW,9.2,-,N/A,,Partly Cloudy,310,2012-10-05 09:53:00
6:53 AM,52.0,46.0,80,30.13,10.0,NW,5.8,-,N/A,,Overcast,310,2012-10-05 10:53:00
7:53 AM,52.0,46.9,83,30.13,4.0,NW,5.8,-,0.04,Rain,Light Rain,320,2012-10-05 11:53:00
8:01 AM,51.8,46.4,82,30.15,2.5,WNW,8.1,-,0.01,Rain,Light Rain,300,2012-10-05 12:01:00
8:08 AM,51.8,48.2,88,30.14,7.0,WNW,6.9,-,0.02,Rain,Light Rain,300,2012-10-05 12:08:00
8:42 AM,51.8,48.2,88,30.14,10.0,NW,6.9,-,0.02,,Overcast,310,2012-10-05 12:42:00
8:53 AM,51.1,48.0,89,30.13,9.0,WNW,4.6,-,0.02,,Overcast,300,2012-10-05 12:53:00
9:17 AM,51.8,48.2,88,30.14,10.0,WNW,5.8,-,0.00,Rain,Light Rain,300,2012-10-05 13:17:00
9:53 AM,50.0,46.9,89,30.12,9.0,West,4.6,-,0.00,Rain,Light Rain,280,2012-10-05 13:53:00
10:02 AM,51.8,46.4,82,30.16,8.0,West,5.8,-,0.01,Rain,Light Rain,270,2012-10-05 14:02:00
10:53 AM,50.0,46.0,86,30.14,9.0,West,6.9,-,0.01,Rain,Light Rain,280,2012-10-05 14:53:00
11:02 AM,50.0,46.4,87,30.15,2.5,West,5.8,-,0.03,Rain,Rain,270,2012-10-05 15:02:00
11:14 AM,48.2,46.4,93,30.15,2.0,West,4.6,-,0.07,Rain,Rain,280,2012-10-05 15:14:00
11:26 AM,48.2,46.4,93,30.15,3.0,WNW,6.9,-,0.09,Rain,Rain,300,2012-10-05 15:26:00
11:34 AM,48.2,46.4,93,30.15,2.5,NW,5.8,-,0.12,Rain,Rain,310,2012-10-05 15:34:00
11:49 AM,48.2,44.6,87,30.15,3.0,WNW,8.1,-,0.17,Rain,Rain,300,2012-10-05 15:49:00
11:53 AM,48.0,45.0,89,30.13,3.0,NW,9.2,-,0.18,Rain,Rain,310,2012-10-05 15:53:00
12:00 PM,48.2,44.6,87,30.15,3.0,WNW,6.9,-,0.02,Rain,Rain,300,2012-10-05 16:00:00
12:37 PM,46.4,44.6,93,30.13,3.0,Calm,Calm,-,0.10,Rain,Rain,0,2012-10-05 16:37:00
1:12 PM,46.4,44.6,93,30.14,3.0,West,6.9,-,0.06,Rain,Rain,270,2012-10-05 17:12:00
1:19 PM,46.4,44.6,93,30.13,2.0,WNW,5.8,-,0.10,Rain,Rain,290,2012-10-05 17:19:00
1:36 PM,46.4,44.6,93,30.12,4.0,WNW,4.6,-,0.14,Rain,Light Rain,300,2012-10-05 17:36:00
1:53 PM,46.9,45.0,93,30.09,3.0,NNW,5.8,-,0.17,Rain,Rain,330,2012-10-05 17:53:00
2:53 PM,46.9,44.1,90,30.08,10.0,NW,5.8,-,0.03,,Overcast,320,2012-10-05 18:53:00
3:15 PM,46.4,42.8,87,30.10,10.0,WNW,6.9,-,0.00,,Overcast,290,2012-10-05 19:15:00
3:53 PM,46.9,43.0,86,30.07,10.0,WNW,6.9,-,0.00,,Overcast,300,2012-10-05 19:53:00
4:22 PM,46.4,44.6,93,30.08,2.0,WNW,5.8,-,0.02,Rain,Heavy Rain,300,2012-10-05 20:22:00
4:34 PM,46.4,44.6,93,30.07,7.0,WNW,4.6,-,0.03,Rain,Light Rain,300,2012-10-05 20:34:00
4:53 PM,46.9,43.0,86,30.06,10.0,WNW,6.9,-,0.03,,Overcast,290,2012-10-05 20:53:00
5:03 PM,46.4,42.8,87,30.06,10.0,NW,6.9,-,N/A,,Overcast,320,2012-10-05 21:03:00
5:53 PM,46.0,43.0,89,30.05,10.0,NW,9.2,-,0.00,,Overcast,320,2012-10-05 21:53:00
6:14 PM,46.4,42.8,87,30.07,10.0,NW,10.4,18.4,N/A,,Overcast,320,2012-10-05 22:14:00
6:30 PM,44.6,39.2,81,30.06,10.0,NW,9.2,-,0.00,Rain,Light Rain,320,2012-10-05 22:30:00
6:53 PM,44.1,39.9,85,30.06,10.0,NNW,12.7,-,0.00,,Overcast,330,2012-10-05 22:53:00
7:15 PM,44.6,41.0,87,30.08,4.0,NNW,13.8,19.6,0.03,Rain,Rain,330,2012-10-05 23:15:00
7:53 PM,43.0,39.0,86,30.07,10.0,WNW,6.9,-,0.04,Rain,Light Rain,300,2012-10-05 23:53:00
8:08 PM,42.8,39.2,87,30.10,7.0,WNW,10.4,-,0.01,Rain,Light Rain,300,2012-10-06 00:08:00
8:21 PM,42.8,37.4,81,30.10,4.0,NW,12.7,-,0.06,Rain,Rain,310,2012-10-06 00:21:00
8:53 PM,41.0,37.9,89,30.08,5.0,NNW,5.8,-,0.19,Rain,Rain,330,2012-10-06 00:53:00
9:00 PM,41.0,39.2,93,30.08,7.0,NNW,5.8,-,0.01,Rain,Light Rain,330,2012-10-06 01:00:00
9:15 PM,41.0,37.4,87,30.10,9.0,NNW,12.7,-,0.02,Rain,Light Rain,330,2012-10-06 01:15:00
9:43 PM,41.0,39.2,93,30.08,6.0,NW,9.2,-,0.08,Rain,Light Rain,310,2012-10-06 01:43:00
9:45 PM,41.0,39.2,93,30.08,7.0,NW,9.2,-,0.08,Rain,Light Rain,320,2012-10-06 01:45:00
9:53 PM,41.0,37.9,89,30.08,10.0,NW,12.7,-,0.08,Rain,Light Rain,320,2012-10-06 01:53:00
10:07 PM,41.0,39.2,93,30.06,10.0,NNW,10.4,-,0.00,,Overcast,330,2012-10-06 02:07:00
10:36 PM,41.0,39.2,93,30.06,2.5,NW,11.5,16.1,0.08,Rain,Heavy Rain,310,2012-10-06 02:36:00
10:50 PM,39.2,37.4,93,30.05,3.0,NW,6.9,16.1,0.14,Rain,Heavy Rain,310,2012-10-06 02:50:00
10:53 PM,39.9,37.9,93,30.06,3.0,NW,9.2,-,0.16,Rain,Rain,310,2012-10-06 02:53:00
11:01 PM,39.2,37.4,93,30.07,5.0,NW,9.2,-,0.01,Rain,Light Rain,310,2012-10-06 03:01:00
11:53 PM,41.0,37.9,89,30.06,10.0,WNW,6.9,-,0.09,,Overcast,290,2012-10-06 03:53:00